Location: Lombard
(41.8800°N, 88.0080°W)
Time: 11:56:36
(UTC-06:00)

Vanguard 1 - Visible Passes

Search period start: 07 February 2023 00:00
Search period end: 17 February 2023 00:00
Orbit: 650 x 3831 km, 34.2° (Epoch: 06 February)

Date Brightness Start Highest point End Pass type
(mag) Time Alt. Az. Time Alt. Az. Time Alt. Az.
07 Feb 11.0 04:15:08 40° S 04:16:22 43° SSE 04:26:03 10° E visible
08 Feb 10.9 04:34:41 38° SSW 04:36:46 48° SSE 04:47:06 10° E visible
09 Feb 12.5 02:41:32 15° ESE 02:41:32 15° ESE 02:43:19 10° E visible
09 Feb 11.0 04:54:14 32° SW 04:57:15 51° S 05:08:06 10° ESE visible
10 Feb 12.1 03:01:04 21° ESE 03:01:04 21° ESE 03:04:26 10° E visible
10 Feb 11.2 05:13:45 25° WSW 05:17:47 52° S 05:29:03 10° ESE visible
11 Feb 11.7 03:20:35 29° ESE 03:20:35 29° ESE 03:25:25 10° E visible
11 Feb 11.3 05:33:16 18° WSW 05:38:22 50° S 05:49:55 10° ESE visible
12 Feb 11.2 03:40:07 37° SE 03:40:07 37° SE 03:46:20 10° E visible
12 Feb 11.5 05:52:48 12° WSW 05:58:58 46° S 06:10:39 10° ESE visible
13 Feb 10.8 03:59:38 44° SSE 03:59:38 44° SSE 04:07:11 10° ESE visible
13 Feb 11.8 06:12:56 10° W 06:19:36 41° SSW 06:31:12 10° SE visible
14 Feb 10.6 04:19:09 44° S 04:19:34 45° S 04:27:59 10° ESE visible
15 Feb 10.6 04:38:41 38° SW 04:40:04 42° S 04:48:42 10° ESE visible
16 Feb 12.4 02:45:32 14° ESE 02:45:32 14° ESE 02:46:30 10° ESE visible
16 Feb 10.9 04:58:13 28° SW 05:00:38 38° S 05:09:16 10° SE visible
